Regional Weather Roundup
Issued by NWS Newport/Morehead, NC

Home | Current Version | Previous Version | Text Only | Print | Product List | Glossary On
Versions: 1 2 3 4 5 6 7 8 9 10 11 12 13 14 15 16 17 18 19 20 21 22 23 24 25 26 27 28 29 30 31 32 33 34 35 36 37 38 39 40 41 42 43 44 45 46 47 48 49 50
000
ASUS42 KMHX 050213
RWRMHX
WEATHER ROUNDUP FOR EASTERN NORTH CAROLINA
NATIONAL WEATHER SERVICE NEWPORT/MOREHEAD CITY NC
1000 PM EDT FRI SEP 04 2015

NOTE: "FAIR" INDICATES FEW OR NO CLOUDS BELOW 12,000 FEET
WITH NO SIGNIFICANT WEATHER AND/OR OBSTRUCTIONS TO VISIBILITY

NCZ015>017-031-032-045>047-102-103-050300-
NORTH COAST

CITY           SKY/WX    TMP DP  RH WIND       PRES   REMARKS
EDENTON        PTCLDY    73  69  89 NE3       30.05R
ELIZABETH CITY PTCLDY    77  71  82 NE8       30.04R
KITTY HAWK     PTCLDY    79  71  77 NE9       30.02R
MANTEO         PTCLDY    78  72  81 E14G20    30.03R

$$

NCZ045>047-081-094-103-104-050300-
CENTRAL COAST

CITY           SKY/WX    TMP DP  RH WIND       PRES   REMARKS
FRISCO         PTCLDY    79  72  79 NE7       30.00R
SWANQUARTER      N/A     77 N/A N/A VRB3      29.97S

$$

NCZ095-097-098-100-101-050300-
SOUTHERN COAST

CITY           SKY/WX    TMP DP  RH WIND       PRES   REMARKS
BEAUFORT       MOCLDY    78  74  87 N7        30.01R
CEDAR ISLAND     N/A     81 N/A N/A N10G16    30.06R
JACKSONVILLE   CLOUDY    80  70  71 N5        30.01R
PINEY ISLAND   MOCLDY   N/A N/A N/A N8        30.01R HAZE
WILMINGTON     MOCLDY    73  70  90 NE6       30.00S


$$

NCZ011>013-027>030-043-044-078>080-089-090>093-098-050300-
COASTAL PLAIN

CITY           SKY/WX    TMP DP  RH WIND       PRES   REMARKS
AHOSKIE        MOCLDY    72  69  91 CALM      30.06R
CLINTON        CLOUDY    73  73 100 CALM      30.05R FOG
ELIZABETHTOWN  LGT RAIN  73  72  97 CALM      30.04R
GOLDSBORO      MOCLDY    74  70  88 NE3       30.02R
GREENVILLE     PTCLDY    77  72  83 NE7       30.06R
HAVELOCK       MOCLDY    77  73  87 NE6       30.02R
KENANSVILLE      N/A     74  68  82 CALM      30.04R
KINSTON        NOT AVBL
NEW BERN       MOCLDY    76  70  82 NE7       30.03R
RICHLANDS      CLOUDY    75  66  73 CALM      30.02S
ROCKY MOUNT    CLOUDY    75  70  84 NE6       30.05R
WASHINGTON     PTCLDY    74  70  89 NE3       30.03S
WHITEVILLE     DRIZZLE   71  69  93 SW5       30.02R

$$

AMZ130-135-150-152-154-156-158-170-250-252-270-ANZ085-086-088-633-658-670-050300-
MARINE OBSERVATIONS

STATION/POSITION TIME  TEMP    WIND        PRES    WAVE   SWELL
                       AIR SEA DIR/SP/G            HT/PER HT/PER
                 (UTC) (F)     (DEG/KT/KT) (MB)    (FT/S) (FT/S)
CHESAPEAKE LIGHT 0200   79      60/ 18/ 19 1018.4
64 E VA BEACH    0150   80 80   60/ 16/ 19 1016.6    4/ 5   2/12
DUCK             0100   80 81   50/ 19/ 21 1015.8
2 E DUCK         0111      80                N/A     3/ 4
OREGON INLET     0100   80 83   40/ 15/ 18 1015.8
13E OREGON INLT  0200      81                N/A     4/ 4
HATTERAS CG      0100   81 84   50/  8/ 14 1015.1
DIAMOND BUOY     0150   82 84   40/ 14/ 16 1015.5    2/ 4
CAPE LOOKOUT     0200   81      40/ 16/ 18 1015.8
BEAUFORT LAB     0100   80 83   20/  5/  8 1015.0
30 SE NEW RVR IN 0108   83 83  300/  4/  6 1015.6
30 SE NEW RVR IN 0125      83                N/A     1/11
27 SE WRIGHTSVLE 0100   79 83  200/  2/  2   N/A
5 SE WRIGHTSVLE  0108   83 83  290/  4/  6 1015.9
225 S CAPE HAT   0150   83 84   20/ 10/ 12 1014.3    1/12   2/12
41 SE CHARLESTON 0150   82 84   70/  4/  4 1015.3    1/ 6   2/ 6

$$



USA.gov is the U.S. government's official web portal to all federal, state and local government web resources and services.